Temperature
11 11 10 10 9 9 8 8 8 7 7 6 5 4 4 3 3 2 1 0 -1 -2 -2 -3 -3 -2 -2 -2 -3 -3 -3 -4 -6 -5 -4 -3 -4 -5 -5 -5 -6 -6 -6
10 10 10 10 9 9 9 8 8 8 7 6 5 4 4 3 2 2 1 -0 -1 -2 -2 -3 -3 -3 -3 -3 -3 -3 -4 -4 -5 -6 -5 -4 -5 -5 -5 -6 -6 -6 -7
9 9 9 9 9 8 8 8 8 7 7 6 6 5 4 3 2 1 0 -1 -1 -2 -2 -3 -3 -4 -4 -4 -4 -4 -4 -5 -5 -6 -6 -6 -5 -5 -6 -6 -6 -7 -7
9 8 8 8 8 8 7 7 7 7 6 6 6 5 4 3 2 1 0 -1 -2 -2 -3 -4 -4 -4 -4 -4 -4 -4 -4 -5 -6 -7 -7 -7 -7 -6 -7 -7 -7 -7 -7
8 8 7 7 7 7 7 6 6 6 6 5 5 4 4 2 2 1 -1 -1 -2 -3 -3 -4 -4 -5 -4 -4 -5 -5 -5 -5 -6 -7 -8 -8 -8 -7 -7 -7 -7 -7 -7
7 7 7 6 6 6 6 6 5 5 5 5 4 4 3 2 1 -0 -2 -2 -3 -3 -4 -4 -5 -5 -5 -5 -5 -5 -5 -6 -6 -7 -7 -8 -7 -7 -7 -7 -8 -8 -8
6 6 6 6 5 5 5 5 5 4 4 4 3 3 2 2 1 -1 -3 -3 -4 -4 -5 -5 -6 -6 -6 -5 -5 -5 -6 -6 -6 -6 -7 -7 -7 -7 -7 -7 -8 -8 -8
6 5 5 4 4 4 3 3 3 3 2 2 2 2 1 1 -0 -2 -3 -4 -4 -5 -5 -6 -6 -6 -6 -5 -5 -5 -5 -5 -6 -6 -7 -6 -7 -7 -7 -7 -7 -8 -8
5 4 4 3 3 2 2 2 2 1 1 1 1 1 0 0 -1 -2 -3 -4 -5 -5 -6 -6 -6 -6 -6 -6 -6 -6 -5 -5 -5 -6 -7 -7 -7 -7 -7 -7 -8 -8 -9
3 3 2 2 2 1 1 1 1 0 0 0 -0 -0 -1 -1 -1 -3 -4 -5 -5 -5 -6 -6 -6 -6 -6 -6 -6 -6 -6 -5 -6 -6 -7 -7 -7 -7 -7 -8 -8 -9 -9
2 2 2 1 1 1 0 0 -0 -0 -1 -1 -1 -1 -1 -2 -2 -3 -4 -5 -5 -6 -6 -6 -6 -6 -6 -6 -6 -6 -6 -6 -6 -7 -7 -7 -7 -7 -7 -8 -8 -9 -9
1 1 1 0 0 -0 -1 -1 -1 -1 -1 -1 -2 -2 -2 -2 -3 -4 -4 -5 -5 -6 -6 -6 -6 -6 -6 -6 -6 -6 -6 -7 -7 -7 -7 -7 -7 -7 -7 -8 -8 -9 -9
0 0 -0 -0 -1 -1 -1 -1 -2 -2 -2 -2 -2 -3 -3 -3 -4 -4 -5 -5 -6 -6 -6 -6 -6 -6 -6 -6 -6 -6 -6 -7 -7 -7 -7 -7 -7 -7 -8 -8 -8 -9 -9
-1 -1 -1 -1 -1 -1 -2 -2 -2 -2 -3 -3 -3 -3 -3 -4 -4 -5 -5 -6 -6 -6 -6 -6 -6 -6 -6 -6 -6 -6 -6 -7 -7 -7 -7 -7 -8 -8 -8 -9 -9 -10 -10
-1 -1 -1 -2 -2 -2 -2 -3 -3 -3 -3 -3 -3 -4 -4 -4 -4 -5 -6 -6 -6 -6 -6 -6 -6 -6 -6 -6 -6 -6 -7 -7 -7 -7 -8 -8 -8 -8 -9 -9 -10 -10 -11
-2 -2 -2 -2 -3 -3 -3 -3 -3 -3 -3 -3 -4 -4 -4 -4 -5 -5 -6 -6 -6 -6 -7 -6 -6 -6 -6 -6 -6 -6 -7 -7 -7 -8 -8 -8 -9 -9 -9 -9 -10 -11 -11
-3 -3 -3 -3 -3 -4 -4 -4 -4 -4 -4 -4 -4 -4 -4 -5 -5 -6 -6 -6 -6 -6 -6 -6 -6 -6 -6 -6 -6 -6 -7 -7 -8 -8 -8 -9 -9 -9 -10 -10 -11 -11 -11
-3 -3 -4 -4 -4 -4 -4 -4 -4 -4 -4 -4 -4 -4 -5 -5 -5 -6 -6 -6 -6 -6 -6 -6 -6 -6 -6 -6 -6 -7 -7 -8 -8 -8 -9 -9 -9 -10 -10 -11 -11 -11 -11
-4 -4 -4 -4 -4 -4 -4 -4 -4 -4 -5 -5 -5 -5 -5 -5 -6 -6 -6 -6 -6 -6 -6 -6 -6 -6 -6 -6 -7 -7 -7 -8 -8 -8 -9 -9 -10 -10 -11 -11 -11 -11 -11
-4 -4 -4 -4 -4 -4 -4 -4 -5 -5 -5 -5 -5 -5 -5 -6 -6 -6 -6 -6 -6 -6 -6 -6 -6 -7 -6 -7 -7 -7 -8 -8 -8 -9 -9 -10 -10 -10 -11 -11 -11 -11 -12
-5 -4 -4 -4 -4 -4 -5 -5 -5 -5 -5 -5 -5 -5 -6 -6 -6 -6 -6 -6 -6 -6 -6 -6 -6 -6 -7 -7 -7 -7 -8 -8 -9 -9 -10 -10 -10 -10 -11 -11 -11 -11 -12
-5 -5 -5 -4 -5 -5 -5 -5 -5 -5 -6 -6 -6 -6 -6 -6 -6 -7 -7 -6 -6 -6 -6 -6 -7 -7 -7 -7 -7 -8 -8 -8 -9 -9 -10 -10 -10 -11 -11 -11 -11 -11 -12
-5 -5 -5 -5 -5 -5 -5 -5 -5 -6 -6 -6 -6 -6 -6 -6 -7 -7 -7 -7 -6 -7 -7 -7 -7 -7 -7 -7 -8 -8 -8 -9 -9 -10 -10 -10 -10 -11 -11 -11 -11 -11 -12
-5 -5 -5 -5 -5 -5 -5 -5 -6 -6 -6 -6 -6 -6 -6 -7 -7 -7 -7 -7 -7 -7 -7 -7 -7 -7 -7 -8 -8 -8 -9 -9 -10 -10 -10 -11 -11 -11 -11 -11 -11 -11 -12
-5 -5 -5 -5 -5 -5 -6 -6 -6 -6 -6 -6 -7 -7 -7 -7 -7 -7 -7 -7 -7 -7 -7 -7 -7 -7 -8 -8 -8 -9 -9 -9 -10 -10 -10 -11 -11 -11 -11 -11 -11 -11 -12
-5 -5 -5 -5 -5 -6 -6 -6 -6 -6 -7 -7 -7 -7 -7 -7 -7 -7 -7 -7 -7 -7 -7 -7 -7 -8 -8 -8 -9 -9 -9 -10 -10 -10 -10 -10 -11 -11 -11 -11 -11 -11 -12
Wind_Speed
5 6 7 9 9 10 11 13 13 13 13 13 14 14 16 17 17 18 18 16 18 16 15 16 17 14 12 11 11 10 11 11 14 10 8 8 9 10 12 17 20 20 23
4 5 7 8 8 9 11 12 11 12 12 13 13 14 16 17 17 19 20 19 19 19 19 17 18 15 16 13 12 13 13 12 12 14 10 9 10 10 10 12 15 19 19
4 5 7 8 8 10 10 10 11 11 12 12 13 15 15 15 16 17 18 18 19 19 18 19 18 17 18 16 15 14 13 13 11 12 12 10 10 9 11 13 14 11 18
5 6 8 8 9 10 10 10 10 10 11 12 13 14 14 13 14 15 16 17 17 17 18 18 18 19 19 18 16 16 13 13 11 11 12 10 11 10 9 11 12 9 12
7 8 9 9 9 10 10 10 10 10 12 11 12 13 12 12 13 13 14 16 16 16 17 18 19 24 27 22 17 14 14 13 12 12 13 11 12 9 10 9 12 11 10
8 10 10 10 10 10 11 11 11 11 11 11 12 13 13 13 22 27 20 14 16 17 17 17 19 24 29 34 33 28 23 17 15 14 13 14 13 11 9 10 11 12 14
10 11 11 11 11 11 12 11 12 12 11 12 12 13 14 16 26 27 29 17 16 17 17 15 16 19 26 18 25 32 29 32 27 18 16 16 13 10 10 13 13 14 16
11 12 12 11 12 11 11 12 12 11 11 11 12 12 13 16 25 27 27 19 15 17 17 17 17 17 18 19 16 17 17 17 20 16 13 14 13 12 12 14 15 14 13
12 13 12 10 11 11 12 12 11 11 11 11 10 11 13 15 23 25 25 12 13 16 16 18 19 18 26 29 19 18 18 16 22 26 25 23 26 26 20 12 11 13 16
13 11 10 10 11 12 13 12 11 10 11 11 11 10 12 12 19 23 24 11 13 13 14 17 26 25 27 29 20 17 18 15 12 13 16 19 17 18 24 14 11 12 13
11 11 11 11 12 13 12 11 11 11 11 11 12 11 11 13 17 22 24 12 12 12 13 13 15 28 30 30 25 16 20 15 11 12 11 10 10 9 10 10 9 10 12
11 12 12 12 12 11 12 12 11 11 11 11 11 11 9 10 15 18 23 23 19 14 13 11 13 24 27 28 22 21 24 20 9 9 9 9 9 9 8 9 10 10 11
12 12 12 12 12 11 12 13 11 10 10 10 10 11 9 7 10 20 22 23 24 15 12 17 19 22 23 19 23 23 18 11 8 9 9 9 7 7 7 6 7 9 10
13 13 12 13 13 12 10 9 10 10 10 11 11 11 10 7 6 7 8 11 16 16 12 16 22 22 18 16 15 13 9 8 8 8 7 6 5 5 6 6 7 7 9
13 13 12 12 13 12 11 10 12 11 12 13 11 10 10 10 11 15 10 8 8 10 8 7 8 8 10 9 8 7 7 7 8 6 6 6 6 6 6 5 6 7 9
12 12 11 11 11 11 12 13 15 17 23 24 22 19 14 17 20 19 19 18 18 17 12 8 9 10 10 9 9 8 7 7 7 6 6 6 6 6 7 6 7 8 10
13 13 12 11 12 12 12 13 14 15 18 20 20 21 20 20 20 19 18 18 17 16 11 8 8 9 9 8 8 7 7 7 6 6 6 6 6 7 7 8 8 9 10
13 16 15 12 12 12 12 12 12 14 14 11 13 18 19 19 19 18 17 13 10 10 7 7 8 8 7 8 8 7 6 6 5 6 6 6 6 7 8 9 9 10 10
13 12 12 12 12 12 12 12 12 12 12 12 9 10 15 15 15 14 13 8 7 7 7 7 7 7 7 7 7 7 6 6 6 5 6 6 6 7 8 9 9 14 13
12 19 18 14 12 12 11 11 11 11 12 11 10 8 7 7 5 6 6 6 6 6 7 7 7 7 7 7 6 6 6 6 6 6 6 6 7 7 9 10 9 9 9
12 14 20 16 12 12 11 11 11 11 11 10 9 9 11 6 5 5 5 5 6 6 6 7 6 7 6 6 6 6 7 6 6 6 6 6 7 7 8 8 9 9 9
12 12 12 12 12 11 12 11 11 11 10 10 8 8 11 6 4 4 4 4 4 4 5 5 6 6 6 6 6 6 6 6 6 6 6 6 7 7 7 8 8 8 9
12 13 13 12 11 14 14 10 10 10 9 9 7 6 5 4 4 4 4 3 3 4 4 5 5 5 4 5 5 6 6 6 6 6 6 6 7 7 7 8 9 9 9
12 14 14 13 12 11 11 10 9 9 9 7 6 5 4 3 3 3 2 3 3 4 4 4 5 6 6 5 4 4 5 5 5 6 7 7 8 7 7 7 8 9 10
13 13 13 12 11 11 10 10 9 8 7 6 5 4 3 3 2 2 2 3 4 4 4 4 4 5 6 6 5 5 8 11 10 7 6 7 8 8 8 8 8 9 9
12 12 12 11 10 10 10 9 8 7 6 5 4 3 2 2 2 2 2 3 3 3 4 3 4 5 5 5 6 8 10 11 11 12 7 6 7 7 7 7 9 9 10
Wind_Direction
244 241 242 241 238 236 237 239 239 238 235 231 225 220 218 217 216 218 221 217 220 221 218 217 218 211 211 212 214 216 221 223 241 245 247 250 249 255 266 267 267 266 267
259 256 254 252 247 244 245 244 240 239 237 235 230 227 224 220 217 218 221 219 219 220 218 216 217 213 213 213 215 218 222 223 232 246 251 251 250 251 256 261 267 268 264
287 276 272 268 261 255 254 251 246 243 242 238 233 233 230 225 220 220 220 220 220 220 217 217 216 212 215 216 216 220 224 228 229 240 249 251 255 256 259 264 264 264 267
311 295 285 279 273 269 265 261 256 249 246 243 239 237 233 228 223 220 219 220 220 220 218 217 216 215 216 216 218 220 221 225 228 236 246 252 256 253 253 263 269 261 266
312 300 290 286 283 280 277 271 265 258 253 247 244 242 236 231 228 222 219 220 220 221 220 219 219 220 221 220 220 219 218 223 228 235 243 250 253 252 252 256 268 274 267
305 295 292 291 288 283 280 277 272 266 259 252 247 244 240 238 242 239 231 225 223 222 223 221 222 228 230 228 228 225 220 220 225 230 238 244 248 246 252 260 268 277 281
296 290 288 285 282 279 279 278 273 269 264 257 252 246 245 242 245 245 242 231 224 225 224 222 225 227 228 229 234 235 234 232 230 228 236 243 247 247 253 262 264 268 274
292 288 284 279 277 277 275 274 272 269 265 261 257 251 249 248 250 250 247 239 227 224 222 221 224 226 225 222 223 230 236 239 239 238 239 247 250 253 252 259 267 273 274
290 285 281 278 279 280 278 277 275 273 270 264 260 253 252 252 252 252 249 240 232 226 222 221 223 225 229 227 222 226 232 237 243 244 245 249 253 258 260 267 269 276 280
287 285 288 290 288 285 283 282 279 274 273 270 266 258 255 251 252 253 251 239 234 231 226 223 225 226 228 229 224 222 228 231 228 239 249 256 259 263 267 262 260 269 278
293 297 296 292 288 287 287 284 282 279 277 273 271 266 257 254 257 255 252 238 231 232 231 226 223 229 229 228 227 222 230 229 225 232 240 244 247 249 251 247 240 247 265
298 297 294 292 292 293 290 288 284 282 281 278 277 275 262 257 259 257 254 249 240 233 233 227 222 226 229 229 230 230 233 236 230 229 237 242 245 247 246 242 240 242 249
300 298 297 296 294 292 292 293 292 287 283 282 278 278 273 254 253 259 258 254 249 239 232 230 224 226 226 229 231 232 233 230 221 230 238 243 239 240 242 248 252 253 258
300 299 297 298 297 294 291 290 289 287 284 282 281 279 277 267 251 245 245 254 253 247 243 235 228 225 221 218 224 234 227 219 220 230 237 240 239 243 248 250 262 268 275
298 297 298 295 294 295 290 287 286 276 277 282 279 274 277 276 264 258 250 238 233 239 230 220 212 211 211 206 206 212 212 218 233 225 229 238 245 252 259 256 260 268 273
301 299 298 296 296 295 295 294 287 285 291 289 285 281 274 271 275 270 265 257 248 240 232 222 214 210 210 206 204 206 209 215 219 222 226 234 246 256 265 266 264 266 273
297 298 298 296 296 295 295 297 300 300 295 293 292 289 283 279 275 270 263 255 247 240 231 216 209 205 205 200 199 202 209 211 209 215 226 233 245 257 265 269 271 272 274
296 298 299 295 293 292 293 294 296 298 301 296 292 291 290 284 278 270 262 254 242 231 221 210 203 197 197 196 197 202 206 205 206 214 223 233 242 255 264 268 270 272 278
299 298 296 293 291 290 291 291 291 291 292 294 293 291 290 286 278 268 260 244 233 218 207 199 192 193 193 191 193 196 198 203 209 213 225 235 243 252 261 267 271 277 282
299 298 300 296 294 294 292 292 292 292 293 292 292 289 286 279 267 259 245 233 227 210 197 192 190 191 186 184 186 189 196 206 212 219 229 238 244 251 260 267 271 276 278
299 299 299 297 295 294 293 293 292 292 292 291 289 284 284 271 260 249 239 229 216 202 192 188 186 183 180 179 183 192 201 212 216 223 232 239 246 255 263 268 270 274 278
298 297 297 297 297 296 295 293 292 291 291 291 291 288 287 278 259 250 239 222 204 191 180 176 178 179 180 183 187 195 208 218 222 226 234 242 249 258 265 267 272 277 280
299 299 300 298 296 299 300 294 292 291 290 288 288 287 281 264 256 246 228 202 178 170 167 167 170 173 176 181 186 195 210 221 224 225 236 248 255 260 263 268 273 280 281
301 300 300 300 300 299 297 295 294 292 291 291 288 282 268 254 253 243 205 174 165 163 163 167 171 176 179 184 195 203 213 225 226 229 234 247 258 264 265 269 274 277 281
302 301 302 302 302 302 300 298 296 296 295 292 286 274 257 244 240 213 177 161 160 164 167 169 173 179 187 196 204 218 237 246 250 245 234 244 254 257 265 271 277 281 282
303 302 301 300 300 299 299 300 299 299 296 294 283 263 245 229 214 184 167 159 160 166 172 179 181 184 195 207 218 234 247 254 259 261 256 248 249 257 265 273 278 282 284
Height
1449 1446 1444 1441 1438 1435 1433 1430 1428 1425 1424 1422 1421 1419 1417 1415 1414 1413 1412 1413 1413 1413 1415 1416 1416 1419 1421 1423 1425 1426 1426 1426 1422 1421 1425 1426 1425 1424 1424 1423 1421 1419 1417
1446 1442 1439 1436 1432 1429 1426 1423 1420 1417 1415 1413 1411 1408 1406 1404 1403 1401 1400 1400 1400 1401 1402 1404 1405 1409 1410 1413 1414 1415 1416 1416 1415 1413 1414 1416 1415 1415 1414 1413 1411 1409 1407
1441 1438 1434 1430 1426 1423 1419 1415 1412 1408 1405 1403 1401 1398 1396 1394 1393 1391 1390 1390 1389 1389 1391 1392 1394 1398 1399 1401 1403 1405 1406 1407 1407 1406 1404 1406 1405 1405 1404 1403 1401 1400 1398
1436 1432 1428 1424 1420 1415 1411 1407 1403 1400 1396 1393 1390 1388 1385 1384 1382 1381 1380 1379 1379 1379 1380 1381 1384 1386 1388 1391 1393 1395 1397 1398 1398 1397 1396 1396 1396 1395 1395 1393 1391 1389 1387
1430 1426 1421 1417 1412 1407 1403 1399 1395 1391 1387 1384 1380 1377 1375 1373 1371 1370 1369 1368 1368 1369 1370 1371 1373 1375 1378 1381 1383 1385 1387 1388 1388 1388 1387 1387 1386 1386 1386 1385 1382 1379 1376
1424 1419 1414 1409 1404 1399 1394 1390 1385 1381 1378 1374 1370 1367 1364 1362 1361 1360 1359 1357 1357 1357 1358 1360 1362 1366 1368 1371 1373 1375 1376 1377 1377 1378 1378 1377 1376 1377 1377 1376 1374 1370 1364
1417 1411 1406 1400 1395 1390 1386 1381 1376 1372 1368 1364 1360 1357 1353 1351 1350 1349 1349 1347 1346 1345 1347 1349 1351 1353 1357 1360 1363 1366 1367 1368 1369 1370 1368 1367 1368 1368 1369 1367 1365 1361 1356
1409 1403 1398 1393 1387 1382 1377 1372 1368 1363 1359 1355 1351 1348 1344 1341 1341 1339 1339 1338 1335 1334 1336 1338 1340 1343 1347 1350 1353 1355 1356 1358 1360 1361 1359 1359 1360 1360 1360 1359 1356 1351 1346
1402 1396 1391 1386 1380 1375 1369 1364 1360 1355 1350 1346 1342 1338 1334 1331 1331 1330 1329 1327 1326 1325 1326 1328 1330 1332 1336 1341 1343 1344 1346 1347 1350 1351 1351 1351 1352 1352 1353 1351 1347 1344 1336
1395 1390 1385 1379 1373 1367 1362 1357 1352 1347 1342 1337 1333 1329 1326 1322 1321 1320 1320 1318 1316 1316 1317 1318 1320 1323 1326 1330 1333 1335 1336 1337 1340 1341 1342 1342 1343 1343 1343 1342 1339 1335 1329
1388 1382 1377 1372 1366 1360 1354 1349 1344 1338 1333 1328 1324 1320 1317 1314 1312 1311 1310 1309 1307 1307 1308 1309 1310 1314 1318 1321 1324 1326 1327 1330 1331 1332 1332 1333 1333 1333 1332 1331 1330 1327 1322
1381 1375 1369 1363 1358 1353 1347 1341 1336 1331 1325 1320 1315 1310 1307 1305 1303 1301 1301 1300 1300 1299 1299 1301 1303 1306 1310 1313 1316 1318 1321 1323 1324 1324 1324 1323 1323 1323 1322 1321 1319 1317 1313
1373 1367 1361 1355 1350 1345 1339 1333 1328 1323 1318 1312 1307 1302 1298 1296 1295 1293 1292 1291 1291 1292 1291 1294 1296 1299 1302 1306 1309 1311 1314 1315 1315 1316 1315 1315 1315 1315 1313 1311 1309 1306 1303
1365 1359 1353 1347 1342 1337 1332 1327 1321 1316 1310 1305 1300 1295 1291 1288 1286 1285 1283 1283 1283 1284 1285 1286 1290 1292 1295 1298 1301 1304 1305 1307 1308 1308 1308 1308 1308 1307 1305 1303 1300 1297 1293
1358 1352 1346 1340 1334 1328 1323 1319 1314 1309 1305 1299 1293 1289 1285 1280 1279 1278 1276 1275 1275 1276 1278 1280 1282 1285 1288 1290 1293 1295 1298 1299 1300 1300 1301 1300 1300 1299 1297 1295 1292 1289 1285
1350 1344 1338 1332 1327 1321 1315 1310 1306 1302 1297 1293 1288 1283 1278 1275 1272 1271 1270 1269 1270 1271 1272 1273 1275 1278 1280 1283 1286 1288 1290 1292 1293 1294 1294 1294 1293 1291 1289 1287 1285 1282 1277
1344 1337 1331 1325 1320 1314 1309 1303 1296 1292 1289 1285 1280 1276 1272 1268 1266 1264 1263 1263 1264 1265 1266 1267 1269 1272 1274 1277 1280 1282 1284 1285 1286 1287 1287 1287 1286 1284 1282 1280 1277 1274 1270
1336 1330 1324 1318 1313 1308 1303 1297 1291 1285 1279 1275 1272 1269 1265 1262 1259 1257 1257 1257 1257 1258 1260 1261 1264 1266 1269 1272 1274 1276 1278 1279 1280 1280 1280 1280 1279 1278 1276 1273 1270 1267 1263
1329 1322 1317 1311 1306 1301 1296 1291 1285 1280 1274 1269 1264 1261 1259 1255 1253 1252 1251 1251 1251 1252 1254 1257 1259 1262 1265 1267 1269 1271 1272 1273 1273 1274 1274 1273 1272 1271 1269 1266 1264 1261 1258
1321 1315 1310 1305 1299 1294 1289 1284 1279 1274 1269 1264 1259 1256 1253 1250 1248 1247 1246 1246 1247 1248 1250 1253 1255 1258 1260 1262 1264 1266 1266 1267 1267 1267 1267 1267 1266 1264 1262 1260 1257 1254 1251
1313 1308 1303 1298 1293 1287 1282 1277 1273 1268 1263 1258 1254 1251 1249 1246 1244 1243 1243 1243 1243 1245 1247 1249 1252 1254 1256 1258 1259 1260 1261 1261 1261 1261 1261 1260 1259 1258 1256 1254 1251 1248 1244
1307 1301 1296 1291 1286 1281 1276 1271 1267 1262 1258 1254 1250 1247 1245 1243 1241 1240 1239 1240 1241 1242 1244 1246 1248 1250 1252 1253 1254 1255 1255 1255 1255 1255 1255 1254 1253 1252 1250 1248 1245 1242 1238
1301 1295 1290 1285 1280 1275 1270 1265 1261 1257 1253 1249 1246 1243 1241 1239 1238 1237 1237 1237 1239 1240 1242 1244 1245 1247 1248 1249 1250 1250 1250 1250 1250 1250 1249 1248 1247 1246 1244 1242 1239 1236 1232
1295 1289 1284 1278 1274 1269 1264 1259 1255 1252 1248 1245 1242 1239 1237 1236 1235 1235 1235 1236 1237 1238 1240 1241 1242 1243 1244 1245 1245 1245 1245 1245 1245 1244 1244 1243 1242 1240 1238 1236 1233 1230 1227
1288 1283 1278 1273 1268 1263 1259 1254 1250 1247 1244 1240 1238 1236 1235 1234 1233 1233 1233 1234 1235 1236 1237 1238 1240 1240 1241 1241 1241 1241 1240 1240 1240 1239 1239 1238 1236 1235 1233 1230 1227 1224 1221
1282 1277 1272 1268 1263 1258 1254 1250 1246 1243 1240 1237 1235 1233 1232 1232 1232 1232 1232 1233 1233 1234 1235 1236 1237 1237 1237 1237 1237 1236 1236 1235 1235 1235 1234 1233 1231 1229 1227 1224 1222 1219 1215